Location: La Sioule Rivi�re
(46.3664°N, 3.3197°E)
Time: 12:54:27
(UTC+00:00)

YAOGAN 1 - Pass Details

Date: 29 October 2020
Orbit: 618 x 620 km, 97.9° (Epoch: 23 November)

Event Time Altitude Azimuth Distance (km) Brightness Sun altitude
Rises 18:50:51 0° 181° (S) 2,884 6.0 -23.8°
Reaches altitude 10° 18:53:06 10° 188° (S) 1,983 5.2 -24.2°
Maximum altitude 18:57:15 44° 261° (W) 857 3.6 -24.9°
Drops below altitude 10° 19:01:25 10° 334° (NNW) 1,997 5.5 -25.6°
Sets 19:03:42 0° 341° (NNW) 2,908 6.3 -26.0°
